Theta_e
331 322 317 315 313 310 309 301 296 293 286 287 285 288 290 292 292 294 294 294 295 296 295 297 295 299 299 295 297 296 295 294 294 288 294 296 305 314 318 323 325 331 333 337 341 343 345 346 350 352 353 353 353 352 352 352 351 350 350 349 349 348 348 347 347 347 348 347 347 348 348 348 348 347 347 347 347 348 348 348 347 348 348 348 348 348 347 346 344 342 341 340 338 338 337 337 337
324 319 316 315 313 308 303 295 290 284 283 283 289 286 286 290 293 291 293 293 295 300 295 296 296 297 296 295 295 297 296 297 297 299 299 306 314 314 318 322 328 331 333 337 340 343 344 345 348 351 353 352 352 352 352 352 351 350 349 348 348 348 347 347 347 348 348 348 348 348 348 348 348 348 348 348 348 348 347 347 347 347 347 348 347 347 346 345 344 343 341 339 337 336 335 335 335
321 317 316 310 310 305 301 297 294 281 280 282 283 286 288 292 292 290 291 293 294 294 293 297 296 298 298 297 298 297 295 299 297 300 309 311 309 310 320 322 329 332 333 337 340 343 344 344 345 351 353 353 352 352 352 351 350 349 349 348 348 348 348 348 348 348 348 348 347 348 348 348 348 348 348 348 348 347 347 347 347 346 346 346 347 346 345 344 343 342 341 339 337 336 335 334 334
318 316 315 305 305 299 295 290 287 282 283 280 283 286 290 291 290 290 291 294 293 293 296 299 299 300 299 295 299 298 296 299 299 307 306 312 307 308 322 324 327 332 333 337 340 342 343 343 345 350 353 353 352 352 352 351 350 349 349 347 348 348 348 348 348 349 348 347 347 348 348 348 348 348 348 348 347 347 347 347 346 346 346 346 346 345 344 342 341 340 340 339 337 335 334 333 332
314 316 310 303 299 298 292 290 287 283 284 283 287 289 288 289 290 290 292 292 292 294 296 298 297 298 300 300 298 299 299 299 302 307 309 309 311 311 323 327 331 333 334 337 340 342 342 342 344 348 352 353 353 352 352 351 349 349 349 348 348 348 348 348 348 348 348 348 348 348 349 348 348 347 347 347 347 346 346 346 346 344 344 345 345 343 342 340 340 339 338 338 336 334 332 331 330
310 311 310 305 301 299 292 289 289 287 286 286 287 288 287 289 291 290 291 292 296 295 296 296 298 299 298 299 298 301 297 303 304 310 311 311 315 317 324 330 332 332 333 336 339 341 342 341 343 348 352 352 353 352 352 351 350 349 349 348 348 348 348 348 348 348 348 349 348 348 348 348 348 347 346 346 345 346 346 345 343 342 342 342 342 341 339 338 337 337 336 335 335 332 330 329 328
312 304 302 301 300 296 291 284 283 285 291 289 291 287 288 289 291 293 293 297 299 299 296 299 296 297 295 295 300 301 300 307 309 311 310 314 316 322 326 331 331 332 332 335 338 339 340 341 345 349 351 351 352 352 351 350 350 349 349 348 348 348 348 348 348 348 348 349 348 348 347 348 347 346 346 345 344 344 344 343 342 341 341 340 340 340 337 337 336 336 334 333 333 330 328 328 327
311 304 300 294 292 291 286 285 286 285 293 290 290 291 290 290 290 294 293 294 295 298 297 296 295 297 297 296 297 299 299 309 308 313 313 314 319 320 327 331 330 330 333 334 337 338 338 340 344 348 350 351 351 351 351 350 350 349 349 349 348 349 348 348 348 348 348 348 348 348 348 348 347 346 346 345 343 343 343 341 340 339 339 339 338 338 337 335 335 334 333 332 331 328 327 327 326
306 303 298 295 290 286 285 289 289 288 290 290 290 291 300 293 291 294 294 294 295 295 295 297 296 296 293 295 296 298 299 306 311 314 316 318 320 319 327 329 330 329 332 333 335 336 337 339 343 347 348 350 351 352 351 350 349 349 349 349 348 348 348 348 348 349 348 348 349 348 348 348 347 346 346 345 343 343 342 341 339 339 338 337 337 336 337 337 336 333 332 332 330 327 326 325 323
305 299 293 291 290 289 283 285 287 292 290 290 290 292 292 293 293 294 295 295 296 294 295 296 296 298 296 296 297 300 307 305 310 317 315 317 320 318 320 325 326 330 330 333 334 335 337 336 340 344 346 349 350 352 351 350 349 349 349 349 349 348 348 348 349 349 348 348 349 348 348 347 347 346 345 344 343 342 342 341 339 338 337 336 335 336 334 334 335 334 331 331 329 326 324 323 324
298 296 295 288 283 282 285 286 284 288 289 291 291 292 293 292 294 294 294 294 294 294 295 296 298 296 295 297 296 300 302 308 313 314 315 316 317 319 318 317 322 328 331 330 332 334 335 337 335 341 343 345 347 350 350 349 350 349 349 349 349 348 348 349 349 349 349 349 349 348 347 347 347 346 344 344 342 342 340 340 339 338 337 336 335 334 332 332 332 331 331 330 328 325 324 323 323
299 293 290 283 284 285 283 285 286 289 290 289 295 295 293 296 294 294 293 295 294 292 295 296 296 295 295 292 295 299 299 306 309 311 311 313 318 317 317 315 316 324 326 330 331 333 334 336 337 337 339 342 343 346 346 347 348 348 348 348 349 348 348 348 348 348 349 348 349 348 347 347 347 345 344 344 343 341 341 340 339 338 337 336 334 332 332 331 331 330 331 328 326 324 323 322 319
296 291 288 285 287 287 285 284 285 290 287 288 292 297 293 295 296 295 293 292 291 292 294 295 298 298 295 295 295 294 299 302 309 307 307 313 316 315 314 315 315 320 323 325 330 332 332 335 338 339 338 336 337 339 341 343 345 346 347 348 348 347 347 347 347 347 348 348 348 347 346 346 345 345 344 344 343 342 341 339 338 337 336 334 333 332 332 331 330 331 329 327 325 323 322 321 320
296 292 291 289 284 284 286 286 284 289 285 293 289 291 293 296 294 294 293 294 291 294 296 297 298 296 295 293 291 290 297 299 301 308 309 312 312 313 316 314 316 316 320 326 330 331 331 333 337 339 340 339 340 337 336 338 341 344 345 345 344 345 345 346 346 345 346 346 345 343 342 341 342 343 343 343 342 340 340 340 339 336 334 333 333 332 331 331 330 330 328 326 324 323 321 321 320
300 293 286 286 284 284 284 290 288 286 290 290 296 293 292 296 295 293 295 293 294 293 297 298 298 297 291 294 289 293 304 302 308 308 310 312 313 313 313 315 316 315 318 325 328 329 331 332 336 339 339 341 341 341 343 340 336 338 341 341 341 343 343 342 342 342 341 341 341 339 338 336 335 336 337 337 339 336 335 332 335 337 334 333 332 331 331 330 329 329 328 326 324 323 321 320 318
297 292 289 289 283 285 284 288 287 286 290 290 293 290 293 293 294 296 296 295 296 298 297 299 299 298 295 294 297 295 296 300 307 309 310 312 310 313 309 314 315 315 315 324 327 328 329 331 334 338 340 341 342 342 343 343 335 333 337 339 339 340 340 339 339 338 334 332 333 333 332 333 330 333 329 332 332 334 331 327 331 336 335 334 332 331 331 330 329 329 327 325 324 322 321 318 314
296 292 291 282 284 284 285 289 288 288 288 288 289 293 294 293 292 294 295 295 297 295 294 295 299 299 295 296 297 301 305 308 310 309 310 310 309 310 310 312 313 313 317 318 325 329 329 330 333 336 338 340 342 342 343 343 342 332 333 333 334 334 336 335 335 332 328 326 327 327 326 334 334 334 331 333 325 329 323 323 328 334 336 335 334 333 331 330 329 328 327 325 324 323 319 316 314
295 290 284 285 281 286 287 290 289 292 292 291 292 293 293 291 291 295 296 296 290 291 294 294 295 295 296 295 304 305 306 308 308 310 308 308 308 308 309 310 311 318 316 316 318 325 331 331 333 335 337 339 341 341 342 343 343 335 340 339 336 335 332 330 332 333 328 329 326 330 334 333 332 332 331 327 328 327 323 321 323 329 333 333 332 333 331 330 329 328 327 325 324 321 315 297 297
290 287 285 285 283 288 292 290 289 292 292 291 291 290 291 292 293 294 295 291 290 294 297 295 294 294 296 297 296 303 307 306 307 307 307 307 308 310 310 310 312 311 316 316 317 323 330 332 333 334 335 337 339 340 341 342 342 340 340 341 339 333 332 330 333 330 329 329 326 325 327 331 330 329 329 327 326 321 323 320 322 326 330 330 329 331 332 331 329 327 326 325 323 317 298 293 292
293 290 287 285 288 290 291 292 294 291 294 294 292 292 291 293 295 294 295 292 290 293 296 296 295 296 295 294 293 296 304 305 305 305 306 306 307 309 309 309 311 314 317 315 319 317 325 331 332 334 334 336 338 339 340 341 341 340 340 340 339 338 337 335 335 333 330 330 329 326 324 326 328 327 324 321 321 323 322 319 321 322 325 325 323 325 328 329 329 328 326 325 314 301 293 293 292
294 292 288 289 289 293 294 293 295 294 292 293 293 292 292 294 292 294 293 294 294 293 294 296 296 297 298 295 296 294 301 302 303 303 303 304 305 306 307 307 307 309 311 314 316 318 320 327 331 332 334 335 336 338 338 339 339 339 340 340 339 338 337 336 336 335 332 330 328 325 323 323 324 324 322 322 321 321 319 319 320 321 318 316 320 314 315 316 317 312 312 307 298 297 293 291 291
295 294 292 291 291 293 295 294 293 294 290 292 291 293 296 293 296 294 294 292 295 296 299 294 295 296 295 297 295 298 299 300 301 301 303 304 304 304 304 305 306 305 305 311 316 314 317 321 327 330 332 333 335 337 338 338 338 338 338 340 339 338 337 336 335 334 332 330 327 325 323 322 322 321 321 321 320 319 319 318 319 317 316 314 313 311 311 310 308 307 306 302 296 294 292 290 291
293 291 293 293 292 295 294 294 293 292 294 293 293 294 293 293 293 292 293 295 298 300 298 297 296 296 296 295 293 294 293 294 295 297 298 298 299 300 301 302 302 304 305 309 311 312 315 318 319 324 330 332 333 336 337 337 337 337 337 337 337 336 336 335 334 333 331 329 327 325 324 322 321 321 320 320 319 318 318 318 317 315 316 314 311 311 309 307 306 304 303 301 296 295 294 293 291
296 293 291 294 294 295 295 297 295 294 292 294 292 292 293 292 293 292 293 298 299 300 298 296 296 295 294 293 295 296 296 295 296 297 297 298 298 298 299 299 300 300 302 306 308 310 311 315 318 320 326 329 331 333 335 336 336 336 336 335 334 332 333 334 333 332 330 328 326 325 324 324 322 320 320 319 318 317 318 317 316 314 314 313 310 309 308 305 305 303 302 298 297 295 295 293 292
295 294 293 294 293 293 293 291 291 291 291 292 291 291 294 292 293 292 296 298 299 298 295 294 293 294 296 296 296 296 296 297 297 297 298 298 298 298 298 299 299 298 299 300 303 308 310 314 318 321 322 325 328 332 333 335 335 335 334 334 333 331 331 332 333 330 328 326 326 324 323 323 321 321 319 319 318 317 316 316 315 315 313 313 312 309 307 305 303 302 302 300 297 295 293 293 292
292 294 291 290 292 292 292 292 292 292 293 292 292 293 293 293 292 293 297 299 298 295 294 293 295 296 296 296 297 296 296 296 296 297 297 297 298 298 298 298 299 300 300 301 301 302 308 312 316 320 321 322 324 330 332 333 333 333 334 333 333 331 329 331 329 329 328 326 324 324 323 323 322 321 320 319 318 318 317 316 315 314 314 313 312 311 306 305 304 301 301 300 298 296 293 292 293
292 290 290 292 293 291 291 291 294 293 292 291 293 294 294 290 293 291 291 294 293 293 293 294 296 295 296 296 296 296 296 295 296 296 297 297 297 297 297 298 298 300 301 305 305 304 305 309 313 316 317 317 318 325 329 332 331 332 332 333 333 332 330 329 327 327 327 325 324 323 323 323 323 322 321 319 318 317 316 315 315 314 313 312 312 312 306 307 303 303 303 301 298 296 295 292 292
292 292 291 290 289 290 291 289 292 292 293 290 292 291 291 289 291 292 298 295 293 292 292 295 295 295 295 295 295 295 296 296 296 296 295 295 296 296 296 297 298 299 301 303 305 307 309 309 311 313 315 316 317 319 320 326 328 329 329 330 331 332 332 329 326 326 323 324 323 322 321 321 319 319 319 318 318 316 315 315 314 313 313 312 311 311 308 305 304 301 300 299 298 297 295 292 291
293 292 291 289 289 292 292 292 293 291 292 290 291 291 290 290 289 295 296 293 292 291 292 294 294 294 294 294 294 294 294 295 295 295 295 295 296 297 296 297 298 298 300 301 302 303 306 309 312 313 314 313 315 316 316 320 322 325 326 327 328 326 328 329 330 329 328 326 324 322 322 321 319 320 318 318 316 316 314 313 310 311 311 309 308 305 304 302 301 300 298 296 295 294 294 293 292
293 289 288 290 288 288 292 291 289 291 291 288 292 285 286 287 292 295 293 293 290 291 291 293 293 294 293 293 293 293 294 294 294 294 295 295 296 296 296 297 298 298 299 300 300 300 302 306 310 311 310 313 313 314 314 313 315 318 320 322 322 323 324 324 323 323 323 323 321 319 317 317 316 315 316 314 313 313 310 309 309 309 309 306 306 304 304 301 302 299 299 296 297 295 294 293 291
291 288 289 286 284 284 288 291 290 291 291 289 293 286 284 288 292 293 292 292 290 289 291 293 293 293 293 292 292 292 293 293 293 294 294 295 295 296 295 296 296 297 298 298 298 299 300 301 305 309 310 309 310 311 312 313 311 314 314 316 318 321 320 322 320 321 318 319 318 317 316 316 315 315 314 313 311 310 309 308 308 309 307 306 305 303 304 301 302 302 297 298 293 292 291 291 290
285 287 283 280 284 285 288 292 290 290 291 289 292 284 288 291 292 294 291 290 290 290 292 293 292 292 291 291 291 291 292 293 293 294 294 294 294 295 295 295 296 296 296 297 298 298 299 299 300 302 305 309 309 309 309 311 312 313 313 312 314 314 314 315 314 315 315 315 317 316 316 315 315 315 314 313 314 312 312 311 310 307 305 305 305 302 303 302 300 299 295 297 295 293 291 291 289
282 286 282 283 281 283 288 291 290 292 291 290 290 287 284 289 288 291 291 291 288 289 291 291 291 290 290 290 291 290 291 292 292 293 293 294 294 294 294 294 294 295 295 295 296 297 297 298 298 299 300 303 308 310 310 310 311 312 312 313 313 313 313 313 313 313 314 313 313 314 313 314 315 314 314 313 315 313 312 311 309 307 305 305 304 302 302 302 300 299 294 294 297 298 292 291 288
283 282 283 283 284 283 284 289 291 288 291 288 290 287 286 290 290 292 293 293 289 290 291 291 290 290 290 290 290 290 290 290 291 291 292 293 293 293 294 295 294 294 295 295 295 296 296 296 297 298 298 300 303 307 308 309 310 311 311 311 310 312 311 311 312 313 312 312 312 311 310 310 309 310 310 310 311 311 311 310 308 307 306 305 304 303 303 300 300 300 298 293 293 294 292 292 291
283 282 282 284 283 283 286 286 288 290 290 290 288 287 287 290 292 293 293 292 289 291 291 290 290 289 289 289 289 289 289 289 290 291 292 292 292 293 293 293 293 294 294 294 295 295 295 296 296 296 297 298 300 303 306 307 308 309 308 308 308 308 308 308 310 310 309 310 310 311 311 310 308 309 309 309 310 309 309 308 307 305 305 305 304 302 301 299 298 297 299 296 290 291 292 290 290
288 287 286 282 284 285 284 288 289 290 290 289 287 289 290 291 291 290 292 291 291 291 290 290 289 289 289 289 289 289 289 289 290 291 291 292 292 292 292 292 293 293 293 294 294 294 294 294 295 295 296 297 298 300 302 304 304 303 303 303 302 302 302 302 303 305 307 307 308 309 310 310 310 309 308 308 308 307 307 306 305 303 304 303 303 302 301 299 299 296 296 297 293 290 289 287 286
288 286 285 285 284 285 287 288 291 291 289 288 290 289 286 288 288 290 291 291 290 290 289 289 289 289 289 289 289 288 288 289 290 290 290 290 291 291 292 292 292 292 292 292 292 292 293 293 293 293 294 295 296 296 298 299 300 300 300 299 297 298 298 298 298 299 301 303 304 304 306 307 308 308 307 307 307 306 305 304 304 302 302 302 302 303 302 300 298 297 296 294 295 292 290 286 287
287 286 284 285 283 285 289 288 289 289 289 285 284 286 287 288 288 289 290 290 289 288 288 288 288 288 289 288 288 288 289 289 289 289 289 290 290 290 291 291 291 290 291 291 291 291 292 292 292 293 293 294 294 295 295 296 296 296 298 296 296 296 296 296 295 296 296 298 298 299 299 301 303 304 305 306 305 304 304 302 301 302 301 300 299 299 298 297 295 295 294 293 292 294 294 289 288
285 285 284 283 285 285 288 289 289 288 288 287 285 287 288 287 287 289 289 288 288 289 289 288 288 288 288 288 287 287 287 287 288 288 288 288 289 289 290 290 290 290 290 290 291 291 291 291 292 292 292 293 293 294 294 294 294 295 296 295 295 295 295 295 295 294 295 295 295 296 296 297 299 299 299 300 303 302 301 301 300 299 300 300 299 299 298 296 295 295 294 295 293 289 291 289 289
284 284 283 284 286 285 283 286 286 290 289 286 285 286 288 286 288 288 288 288 288 288 288 288 288 287 287 287 287 287 286 286 286 286 287 287 288 288 289 289 289 289 289 290 290 290 291 291 291 291 291 292 292 293 294 293 294 294 294 295 295 294 293 294 294 294 294 294 293 294 294 294 295 295 296 296 298 298 297 298 297 295 295 294 296 297 296 296 295 294 294 293 294 293 289 290 289
285 286 285 285 286 286 287 287 286 286 288 286 287 285 285 284 286 285 287 288 288 288 288 287 288 287 287 287 287 287 286 286 285 286 286 286 286 287 287 288 288 288 288 288 289 289 290 290 290 290 291 291 291 292 292 293 293 293 293 294 294 293 293 292 292 292 292 292 292 292 292 292 292 292 293 293 293 294 295 295 295 295 294 293 294 293 294 294 294 295 294 293 293 294 294 291 290
284 285 288 289 288 288 286 286 287 282 282 283 286 280 276 279 284 284 285 286 286 286 286 286 286 287 286 286 286 286 286 286 285 285 285 285 286 286 286 287 287 287 287 288 288 289 289 290 290 290 290 291 290 291 291 292 292 291 291 290 289 289 288 288 288 288 289 289 289 290 291 291 291 291 291 291 291 292 292 293 293 294 293 293 293 292 292 292 293 293 293 293 293 292 293 292 290
284 287 288 290 289 286 286 285 286 279 279 284 284 280 274 279 283 284 284 284 284 285 284 285 285 286 285 285 285 285 285 285 285 285 285 285 285 285 285 285 286 286 286 287 288 288 289 289 289 289 289 290 290 290 291 291 290 290 290 289 288 288 287 287 288 289 289 289 289 289 290 290 290 290 290 290 290 290 290 291 291 292 292 292 291 291 291 292 292 291 292 292 292 293 292 290 290
283 285 285 286 286 286 285 284 285 282 281 282 283 283 280 279 283 284 285 283 283 284 284 285 285 285 285 285 285 285 285 284 284 284 284 284 284 284 284 284 285 285 286 286 287 287 287 287 287 288 288 289 289 290 290 290 289 289 288 288 288 287 287 286 287 288 288 288 288 288 288 288 289 289 289 289 289 289 289 289 290 290 291 291 291 291 290 290 290 290 289 290 290 290 291 290 290
285 286 285 284 287 284 283 284 282 282 282 279 280 284 280 277 279 283 284 282 281 283 283 284 284 285 284 285 285 284 284 284 283 283 283 283 283 283 284 284 284 285 285 285 285 286 286 286 286 286 286 287 287 288 288 288 289 288 287 287 286 287 286 286 286 287 286 286 286 286 286 286 287 287 287 287 288 288 288 288 288 289 289 290 290 291 290 289 288 288 289 289 288 289 289 290 290
287 284 284 283 282 281 280 279 283 278 278 276 281 283 278 280 279 281 282 281 282 282 284 284 284 284 284 284 284 284 284 283 283 283 283 283 283 283 283 283 283 284 284 285 285 285 285 285 285 285 285 285 285 286 286 286 286 286 285 285 284 284 284 284 284 284 284 284 284 284 285 285 285 285 286 286 286 287 287 287 287 287 288 288 289 289 289 290 290 289 288 287 287 287 288 287 288
286 285 286 283 281 280 279 278 276 277 274 278 283 283 282 278 279 282 281 283 283 283 283 284 284 284 284 284 284 284 283 283 282 282 282 282 282 282 282 282 282 283 283 284 284 284 284 284 284 284 284 284 284 284 284 284 285 285 284 284 283 283 283 283 283 282 283 283 283 283 283 283 284 284 285 285 285 286 286 286 286 286 287 287 287 288 288 288 289 288 288 286 286 286 287 287 287
286 285 282 283 285 277 277 270 274 272 274 278 282 283 283 277 276 280 283 282 285 285 284 284 284 284 284 283 283 283 283 282 282 282 281 281 282 282 282 282 281 282 282 283 283 283 283 283 283 283 283 283 283 283 283 283 284 284 283 283 283 283 282 282 282 281 282 281 281 281 282 282 283 283 284 284 284 285 285 285 285 285 285 286 286 286 287 287 287 287 288 287 287 286 286 286 286
286 283 284 280 273 274 271 269 273 273 275 277 277 280 279 281 282 283 282 282 283 286 287 286 285 284 284 283 283 282 282 281 281 281 281 281 281 281 281 281 281 281 281 281 282 282 282 282 282 283 282 283 283 283 283 283 283 283 283 283 282 283 282 282 282 281 281 281 281 281 281 281 282 282 282 282 283 283 283 284 284 284 284 285 285 286 286 287 287 287 287 286 286 286 287 286 285
284 285 280 276 272 270 265 267 265 269 273 276 279 281 279 279 280 280 280 282 283 285 286 287 286 285 284 283 282 281 281 281 281 280 280 280 281 281 281 281 280 280 280 281 281 281 281 281 281 282 282 282 282 283 283 283 282 282 282 282 282 282 282 282 281 281 281 281 281 280 280 281 281 281 281 282 282 282 283 283 283 283 284 284 284 285 285 286 286 286 286 286 285 286 285 284 284
285 283 286 282 275 268 268 266 272 275 274 274 276 276 271 276 281 279 281 282 282 284 285 285 284 283 283 281 281 280 280 280 280 280 280 281 281 281 281 281 280 280 279 280 279 280 280 280 281 281 281 282 282 282 282 282 282 282 282 282 282 282 282 281 282 282 281 281 281 281 281 280 280 281 281 282 282 282 282 282 282 282 282 283 283 283 284 284 284 285 285 284 284 284 285 284 284
283 281 284 279 281 280 280 275 271 269 270 271 274 275 275 279 280 281 281 281 282 283 283 283 282 282 281 281 281 280 280 280 280 280 280 280 281 281 281 281 281 280 280 280 280 280 281 281 280 281 281 281 282 282 281 281 281 281 281 281 281 282 282 281 282 282 281 281 280 280 280 280 280 280 281 281 282 281 281 281 282 281 281 282 282 282 282 282 282 282 283 283 283 284 284 284 284
285 286 283 285 285 285 282 277 276 275 272 274 270 277 280 280 281 279 280 281 280 281 282 282 282 281 281 281 281 280 280 280 279 280 279 280 280 281 281 281 280 281 281 282 281 280 280 281 282 282 281 281 281 281 281 281 281 281 281 281 281 281 281 281 281 280 280 280 280 280 280 280 279 280 281 281 281 281 281 281 281 281 281 281 281 281 281 282 283 283 282 282 282 283 283 283 283
286 282 286 287 288 286 282 277 271 268 272 273 271 276 277 279 276 279 279 279 280 280 280 281 281 280 280 281 281 281 280 280 280 279 279 279 280 280 280 280 281 281 281 281 281 281 281 281 281 282 282 282 282 282 282 282 282 282 281 282 282 282 283 283 282 281 280 280 280 280 280 281 281 281 281 281 280 280 280 280 280 280 280 280 280 280 280 280 280 281 281 281 282 282 282 282 283
285 283 286 286 279 279 280 274 274 271 269 269 272 275 275 278 280 277 278 279 280 280 280 280 281 280 281 281 281 280 280 280 280 280 279 280 280 280 280 281 281 282 283 283 283 284 284 283 283 283 284 283 283 283 283 284 284 285 284 283 282 282 281 281 280 280 279 279 279 279 279 280 280 281 281 281 280 280 280 280 280 280 280 280 279 280 280 280 280 280 280 280 281 281 281 281 282
287 287 286 284 281 275 274 279 274 274 270 270 269 272 277 280 279 280 281 281 282 281 280 281 282 281 281 281 282 281 281 280 280 280 280 281 281 281 281 282 282 283 284 285 285 285 284 284 283 282 283 284 285 285 285 284 283 284 284 282 281 280 280 279 279 279 280 279 279 280 280 280 280 281 280 279 279 279 280 279 280 280 280 279 279 279 279 279 279 279 280 279 280 280 280 280 281
284 285 280 283 280 281 280 279 277 277 266 270 271 271 275 277 279 281 283 283 283 282 282 282 282 282 282 282 282 282 281 281 281 281 281 282 282 281 281 281 282 283 284 285 285 284 283 284 285 284 284 283 283 283 283 283 282 282 282 281 280 280 280 279 279 279 279 279 279 280 280 279 279 280 280 280 279 280 280 280 279 280 280 280 279 280 280 279 278 278 279 279 279 279 279 279 279
285 286 284 285 280 278 276 277 279 273 276 272 271 276 281 280 282 281 281 283 284 284 284 283 283 283 283 283 282 282 282 282 282 282 282 282 281 282 282 282 282 282 282 283 283 282 282 282 281 281 281 280 280 280 280 280 280 280 279 279 279 278 278 278 278 278 278 278 278 279 279 278 278 279 279 279 279 279 279 279 279 279 279 279 279 279 279 279 279 279 279 280 280 279 279 279 279
Wind_Speed
7 6 5 2 2 1 1 6 1 2 3 0 1 1 0 0 1 1 1 3 1 2 3 0 2 2 1 1 1 2 2 2 5 3 0 2 1 3 6 4 1 5 9 9 9 9 10 12 14 14 15 15 14 16 15 14 13 13 12 12 12 11 11 11 11 12 12 10 9 8 8 8 8 8 7 7 6 6 6 6 6 6 7 8 9 10 10 12 11 11 11 11 10 9 9 8 8
6 5 3 1 0 1 1 2 4 3 6 3 1 1 2 2 0 2 1 4 2 0 2 1 0 1 4 4 1 0 2 7 6 1 3 3 6 2 6 5 3 9 8 8 8 9 9 10 14 14 15 16 16 15 15 15 14 14 13 13 13 12 12 12 12 12 11 11 10 9 8 8 8 8 8 8 8 8 7 7 6 7 7 7 8 8 9 11 10 10 10 10 9 9 9 8 8
4 5 4 4 2 4 2 4 1 1 4 0 3 4 2 0 2 3 6 5 3 3 4 1 0 1 1 2 1 2 2 0 1 2 2 3 1 3 6 5 4 6 9 8 8 9 8 9 14 15 16 15 16 16 15 15 15 15 14 14 14 13 13 13 12 11 11 10 9 9 9 8 8 8 8 9 9 9 8 7 8 6 7 7 8 8 7 7 8 9 9 9 9 9 9 8 8
3 2 0 3 2 4 1 3 4 5 3 4 2 3 1 1 3 6 5 8 5 3 1 1 1 1 1 2 1 1 3 2 3 3 1 1 6 1 8 7 5 5 5 7 8 9 8 10 14 15 16 16 17 16 16 16 15 14 14 14 14 14 14 13 13 12 11 10 9 9 8 9 8 8 8 8 8 9 9 7 7 7 7 7 8 6 7 7 6 6 7 8 9 9 8 8 8
0 1 2 2 3 1 2 1 4 2 1 4 1 4 4 4 3 3 3 3 5 1 1 1 0 1 1 1 1 0 1 3 3 3 1 3 1 3 7 5 5 7 7 7 8 9 8 13 14 15 16 18 18 18 15 15 15 15 14 14 14 15 14 14 13 12 11 11 10 9 9 8 9 9 10 11 10 9 9 8 7 6 6 6 6 6 6 5 6 5 6 7 8 8 8 8 8
2 1 3 2 0 2 5 2 2 0 4 5 0 1 3 5 4 3 5 6 1 1 2 0 0 1 1 1 3 0 3 3 0 1 2 1 1 4 7 6 6 7 6 6 7 8 8 13 14 15 16 18 18 17 16 14 16 16 15 15 15 14 14 14 14 12 12 11 11 10 9 10 10 11 11 10 9 9 9 8 6 6 6 8 5 4 5 3 4 4 4 6 8 8 8 8 8
1 3 4 4 2 4 3 3 2 3 3 6 2 3 3 3 6 2 4 2 0 0 1 0 1 1 0 3 2 3 3 0 1 0 2 3 1 5 6 6 6 7 7 7 7 7 8 13 14 15 15 16 17 16 16 15 17 17 16 16 16 15 14 14 14 13 13 12 12 11 11 11 11 11 11 11 9 7 8 7 6 5 6 5 4 6 3 4 3 3 5 4 6 7 8 8 8
1 1 2 2 1 3 2 1 2 4 1 5 1 3 5 4 1 0 2 1 1 0 1 1 1 2 3 4 0 2 3 2 3 5 6 3 3 5 5 6 7 5 6 5 6 6 9 13 14 15 15 15 16 16 16 16 17 17 16 16 16 16 16 15 14 13 12 12 12 11 12 12 13 12 12 12 11 9 8 7 5 4 3 2 3 2 4 2 2 2 2 4 6 6 6 7 7
5 5 0 4 1 3 3 0 2 3 6 1 6 7 7 3 2 0 1 1 2 0 2 1 0 2 2 6 2 3 5 2 3 3 1 0 4 5 5 6 7 6 5 5 5 5 6 11 14 15 15 16 15 16 17 19 18 17 17 16 16 16 16 15 14 12 12 12 12 12 13 13 12 12 13 13 13 11 9 8 6 5 3 2 1 2 4 6 7 2 1 4 7 6 5 6 6
2 3 2 2 2 1 3 2 2 1 3 1 2 5 3 0 0 1 1 1 0 1 1 1 1 1 1 4 5 3 1 5 5 1 2 1 1 3 3 3 4 8 6 6 5 5 6 10 14 15 15 15 16 15 18 17 17 17 17 16 16 16 15 15 14 12 12 12 11 12 13 13 12 13 14 13 14 12 10 8 8 6 4 3 2 4 3 5 6 5 1 5 7 6 5 5 5
2 5 2 2 5 1 0 2 3 6 4 5 8 8 8 1 1 0 0 2 0 1 4 3 1 2 1 3 4 2 4 3 1 1 0 1 1 1 2 1 2 5 8 7 6 5 5 7 13 14 14 15 15 15 16 16 16 16 16 15 15 15 14 13 13 12 11 11 11 13 13 13 13 13 11 11 12 11 9 8 7 7 5 3 4 6 2 3 3 2 4 6 7 5 5 4 4
1 2 4 2 1 2 2 1 5 8 8 2 1 2 0 1 1 1 1 2 1 1 2 3 1 3 0 2 3 1 6 4 4 1 1 1 0 0 1 1 1 4 4 6 6 6 5 6 8 11 13 13 13 14 14 14 15 15 15 15 14 14 13 13 12 12 11 10 9 10 13 14 13 13 12 11 10 9 9 8 8 6 6 5 5 4 4 3 2 2 7 7 6 4 3 2 2
4 1 4 4 0 1 1 1 3 3 5 2 1 1 1 0 1 2 2 2 0 3 4 8 2 1 2 1 4 6 3 4 4 3 1 0 0 0 0 2 1 3 3 4 6 6 6 6 8 8 9 12 12 12 13 13 14 14 14 14 13 13 13 12 11 11 11 10 9 10 11 11 11 12 11 10 8 8 9 8 7 7 6 5 5 4 4 4 4 7 7 6 4 3 2 1 2
3 4 3 0 1 1 1 2 1 1 2 1 2 4 2 0 1 1 2 1 4 1 2 1 1 3 2 2 6 2 4 4 3 2 1 0 0 0 1 1 1 3 3 4 6 6 6 6 7 8 8 8 8 9 11 12 13 13 13 13 13 12 12 12 11 11 10 10 10 10 10 10 10 11 11 10 9 8 8 7 6 6 6 6 6 5 6 5 5 9 7 5 4 2 0 0 1
0 2 5 4 0 0 2 0 0 1 1 0 0 2 5 3 0 0 2 2 6 3 1 1 2 2 3 1 6 2 1 3 1 1 1 1 2 1 1 0 0 1 3 4 5 5 6 5 7 7 7 7 8 7 7 10 13 12 13 12 12 12 11 11 11 10 9 9 10 10 10 10 9 10 11 10 10 9 8 7 7 5 7 7 6 6 6 5 5 8 7 4 3 2 1 0 0
4 5 3 0 1 0 2 1 1 2 2 1 2 1 0 5 0 0 2 3 3 1 0 2 0 2 1 2 7 3 5 2 1 1 2 1 2 1 2 1 0 0 2 4 5 5 5 6 6 7 7 8 7 7 7 7 10 12 12 12 11 11 11 10 9 9 9 8 9 10 10 8 8 9 11 9 10 9 8 7 7 6 7 7 7 7 6 6 6 6 6 5 3 3 2 1 1
2 4 1 3 2 2 2 2 3 2 3 3 5 4 1 3 2 2 1 0 3 5 1 2 2 0 3 5 1 2 2 0 2 3 2 1 1 2 3 2 1 2 1 4 4 5 5 6 7 6 7 8 8 7 7 7 8 11 10 12 12 11 10 9 9 8 7 7 7 8 8 6 4 5 8 6 9 6 8 8 7 6 6 6 6 6 7 7 7 7 6 5 4 3 4 4 4
1 1 4 1 3 2 5 4 7 1 1 4 4 1 0 3 3 3 3 1 1 5 6 4 2 4 4 3 0 0 0 1 1 3 1 2 0 2 4 4 1 6 4 4 4 4 5 6 7 7 6 8 7 6 5 6 6 8 7 7 7 8 8 8 6 4 5 3 6 6 4 3 3 3 4 5 5 5 6 8 7 7 6 6 6 7 7 7 7 7 7 5 5 6 6 2 2
3 2 2 5 5 5 6 3 5 0 5 4 4 3 2 5 0 2 2 5 4 9 8 1 4 6 7 6 3 2 0 1 2 3 4 5 5 6 8 4 5 4 6 6 5 5 5 5 5 7 8 8 8 7 5 5 5 5 6 6 6 7 6 6 5 5 4 4 4 3 3 4 3 2 3 4 4 5 5 7 7 6 6 6 6 7 6 6 7 8 7 6 6 7 3 2 1
1 4 3 6 8 4 5 3 4 6 2 5 5 3 1 3 0 1 2 6 3 7 12 8 2 8 6 2 5 4 1 1 1 4 5 6 6 7 6 6 6 5 4 3 5 4 5 6 8 7 8 7 7 6 5 5 5 5 5 4 5 6 6 6 5 5 5 5 5 4 3 3 4 4 3 4 5 4 4 5 6 5 5 5 6 5 5 5 7 7 7 6 7 3 2 1 1
1 1 4 4 3 1 4 6 8 5 2 1 2 1 4 4 4 0 2 7 6 6 8 7 8 10 10 5 3 5 5 4 3 2 4 6 6 4 4 4 3 4 3 4 5 4 4 6 6 6 6 7 8 6 6 5 4 5 6 5 4 4 5 6 5 5 5 5 5 5 5 4 4 4 4 4 3 2 2 2 1 1 1 1 2 2 1 2 3 3 2 4 3 3 2 1 1
4 6 4 3 1 1 7 4 4 1 4 1 3 6 6 3 1 0 1 5 11 6 7 4 6 6 5 8 6 3 4 4 4 4 5 5 6 7 6 6 5 5 4 5 5 2 4 4 4 4 6 7 8 7 7 5 5 5 5 7 4 4 5 5 6 5 5 6 5 5 5 5 4 4 4 4 3 3 3 2 2 1 1 2 0 2 1 1 2 3 4 4 2 2 2 2 1
3 3 3 4 4 3 2 2 2 2 2 4 6 3 2 1 5 4 5 10 10 9 6 6 5 4 3 1 4 7 8 7 7 6 6 8 8 7 7 7 8 8 5 8 4 4 4 4 4 3 6 6 8 6 6 5 4 4 5 5 7 5 5 6 4 5 5 5 6 5 6 5 5 4 4 4 4 3 4 3 4 3 3 3 1 3 2 1 2 3 2 3 2 2 1 1 1
1 5 1 5 2 5 6 6 7 6 3 6 2 2 5 3 10 0 4 12 10 13 5 5 4 5 7 8 8 8 7 7 7 6 5 5 6 6 6 8 8 7 6 6 5 4 3 4 5 5 6 6 6 6 6 6 5 4 4 4 3 4 4 6 6 4 5 5 4 5 5 6 6 5 4 4 4 3 4 4 2 2 2 3 1 2 3 1 1 1 2 1 2 1 2 2 2
3 4 2 4 0 4 4 4 5 6 7 6 3 5 9 3 5 3 14 16 13 4 6 5 8 10 10 10 9 7 8 8 8 6 6 6 5 4 7 7 7 7 8 8 7 5 4 4 5 7 6 6 5 5 6 5 5 4 4 4 4 3 2 1 5 6 2 3 7 5 3 4 4 4 4 4 4 4 3 3 3 3 2 3 3 2 3 4 2 2 1 2 1 1 1 3 3
4 6 0 3 4 5 5 6 7 7 6 2 2 10 7 5 2 5 17 17 6 8 7 7 10 11 9 8 7 7 8 9 7 9 7 5 7 12 13 10 8 9 8 7 7 5 4 3 5 7 7 5 4 5 5 5 5 5 5 4 4 4 3 3 3 5 5 4 2 6 5 5 5 5 5 5 6 7 7 6 5 5 6 5 4 5 4 4 5 2 1 1 1 1 2 3 3
3 2 3 4 6 4 5 4 8 1 3 3 4 11 9 2 2 8 4 4 6 8 9 7 10 10 8 7 7 7 10 10 9 5 9 10 11 11 10 9 10 8 7 9 8 8 5 2 1 1 2 3 4 4 4 5 4 5 4 4 4 4 3 2 2 3 6 5 4 3 6 6 5 6 6 6 5 4 3 4 5 4 4 4 4 5 4 5 5 5 5 4 3 2 3 2 3
1 1 3 4 4 5 8 5 12 2 5 3 8 7 3 2 1 8 11 3 8 8 8 8 10 8 7 7 8 6 9 8 8 10 13 13 10 9 10 10 10 9 10 10 8 7 8 7 3 1 1 3 4 3 2 3 4 4 4 4 5 6 6 4 3 4 2 3 5 5 3 3 3 3 4 4 5 4 4 5 4 5 6 5 5 5 5 5 5 4 3 2 1 0 2 3 2
0 2 6 7 8 8 6 7 4 4 4 2 6 1 5 1 6 13 4 6 8 10 8 8 8 7 6 6 8 9 9 8 8 10 9 6 5 6 8 8 8 7 6 7 8 11 11 9 7 5 3 3 3 2 1 1 1 2 4 4 4 4 5 7 8 7 7 7 6 7 7 7 7 7 6 6 5 5 4 4 5 5 4 3 3 3 3 3 3 3 3 3 2 1 1 3 2
1 2 1 8 5 8 9 0 2 3 3 3 3 5 7 7 12 12 3 6 7 11 7 5 6 6 6 6 7 8 9 9 11 9 7 7 7 7 8 9 9 7 7 7 11 14 9 8 7 7 7 4 4 4 4 3 2 2 2 2 2 3 3 3 3 3 3 3 4 3 2 3 4 3 4 4 5 5 5 5 5 5 5 3 3 4 5 4 4 3 3 3 3 3 4 4 3
3 3 1 4 6 6 3 1 0 3 1 5 1 4 7 10 10 5 4 2 7 6 5 5 5 5 6 5 6 7 8 7 7 8 9 9 7 7 7 9 10 10 8 11 12 9 11 11 8 8 9 8 7 5 4 4 3 3 3 2 2 3 3 4 3 3 3 3 2 3 3 3 3 3 5 5 4 5 5 5 5 6 4 5 4 4 5 3 4 5 3 4 2 2 3 3 3
2 3 6 4 5 7 11 5 5 4 1 1 4 1 8 9 11 7 4 5 8 7 4 5 5 5 5 5 6 6 6 6 8 9 10 9 9 8 9 10 9 11 11 9 9 10 13 12 11 11 11 10 8 7 6 6 6 5 5 5 5 5 4 4 4 3 3 2 1 1 2 3 3 4 4 4 5 5 5 5 6 3 4 5 4 4 4 5 4 3 3 4 4 5 3 5 2
4 4 4 5 1 5 9 3 0 1 1 1 4 5 3 5 5 4 4 7 3 7 5 5 5 5 5 5 5 4 6 9 9 10 11 9 9 8 8 9 10 9 10 11 11 11 13 13 13 13 12 10 9 9 9 8 8 8 8 8 7 7 6 5 5 4 4 3 3 3 3 3 3 2 1 1 3 4 5 5 3 4 4 4 4 4 4 3 4 4 3 4 4 6 5 5 4
6 1 6 4 4 1 3 10 1 1 2 1 1 1 5 6 9 11 8 7 4 7 6 5 5 4 4 5 6 6 7 7 10 10 11 9 7 9 8 8 8 9 10 10 10 10 9 9 10 11 10 10 8 8 8 8 8 9 8 8 9 9 8 7 6 6 6 4 4 4 3 2 2 2 2 2 2 2 1 1 0 2 3 3 4 4 4 3 3 4 5 4 5 4 5 5 6
6 2 2 6 2 4 8 0 3 4 1 1 2 5 8 11 10 7 7 8 8 7 5 5 4 4 4 5 6 7 7 9 8 7 8 8 8 7 8 8 9 10 9 10 11 11 11 10 10 12 12 11 9 8 7 8 8 8 8 9 10 9 8 8 8 8 7 7 7 6 5 4 3 2 2 1 0 1 1 1 1 1 1 2 2 2 2 3 3 4 5 4 3 3 3 4 5
9 8 5 3 4 3 4 8 5 0 6 6 4 7 8 7 9 6 8 6 9 7 6 5 5 5 5 6 6 6 7 8 5 7 7 7 7 8 7 7 9 9 10 11 13 13 12 11 9 11 11 9 8 9 8 8 9 9 9 9 11 9 8 9 9 8 8 9 8 8 7 6 5 5 4 4 4 4 4 4 2 2 1 2 2 3 4 4 5 4 5 4 3 2 1 1 3
1 1 2 6 5 5 6 5 7 0 2 7 10 6 4 7 2 6 8 3 6 5 6 6 5 6 6 6 6 6 8 6 4 5 6 6 7 7 6 7 7 10 12 12 13 13 12 10 12 13 9 10 10 9 8 7 7 6 8 9 7 7 7 8 9 9 9 9 10 10 9 8 7 7 6 6 5 5 4 4 4 3 2 0 1 2 2 2 1 2 2 2 4 4 4 1 1
4 5 3 7 2 9 6 4 1 0 4 3 0 1 6 4 3 5 5 6 6 4 7 7 7 6 5 6 6 6 4 3 5 6 6 6 7 8 7 8 10 15 13 13 13 12 11 12 12 10 9 10 10 8 6 7 5 4 6 5 7 7 9 10 9 9 8 9 11 11 10 10 9 8 7 6 6 6 5 5 4 3 2 2 2 2 2 1 1 1 1 1 1 4 4 2 3
4 5 3 3 8 5 6 7 3 3 4 9 2 3 7 1 2 5 6 5 3 4 3 5 6 6 5 5 5 5 5 5 4 4 5 7 8 9 8 9 10 10 11 12 10 12 13 12 11 10 10 10 10 9 8 6 5 5 6 5 5 6 5 5 7 6 8 9 11 11 11 10 10 10 10 9 8 7 6 5 5 4 3 2 3 3 2 2 1 2 2 3 3 1 2 1 4
5 3 3 9 3 2 6 5 2 0 1 2 1 3 7 2 3 6 5 3 3 5 7 7 5 5 5 4 3 4 5 3 5 6 7 7 7 8 9 11 9 10 11 12 12 12 10 11 11 11 10 10 10 10 8 6 5 4 6 7 8 9 5 5 9 11 12 13 12 11 11 10 10 10 10 10 9 9 8 8 6 6 6 3 2 3 3 4 2 2 2 3 2 3 2 4 4
2 4 4 6 5 5 8 6 3 3 2 1 2 5 6 2 3 1 3 3 6 5 7 7 6 4 3 4 6 5 3 3 3 5 7 8 10 10 10 8 9 12 12 11 11 10 8 11 10 10 10 10 10 11 11 8 8 8 6 7 7 8 11 12 12 12 10 9 11 12 10 11 11 11 10 11 9 8 8 8 7 6 6 5 4 4 4 4 3 3 3 3 3 5 6 3 1
2 5 11 10 7 10 7 4 4 5 4 2 1 4 3 2 1 3 3 3 4 2 5 4 3 4 4 5 4 4 3 3 2 4 6 6 7 7 9 10 11 10 11 9 8 9 9 10 11 11 10 11 11 12 11 10 11 11 11 11 11 10 11 12 11 9 10 10 8 5 11 12 11 11 11 11 11 9 9 9 7 8 7 6 5 4 4 4 4 4 3 3 4 4 5 5 3
1 7 9 12 10 6 3 1 2 3 3 1 2 3 6 3 3 6 4 3 4 2 3 3 3 3 3 3 3 3 2 3 3 4 6 8 8 8 9 10 9 10 8 6 8 9 10 10 10 11 10 10 10 11 11 10 12 11 12 11 9 9 9 7 5 6 6 6 7 11 9 11 12 12 11 11 11 10 9 9 9 8 7 7 5 5 6 5 6 4 3 2 4 4 2 5 7
4 2 4 5 5 5 5 4 7 5 1 4 1 1 4 7 6 2 5 6 4 3 2 2 3 3 2 2 2 2 2 2 3 5 6 6 6 7 8 7 8 8 5 6 8 9 11 10 10 10 9 10 10 9 12 11 11 9 10 10 9 10 9 8 8 7 7 7 11 10 9 9 10 11 11 12 12 11 11 11 10 9 9 8 7 7 5 5 6 6 4 3 3 3 3 4 6
3 0 5 2 5 4 3 4 3 1 1 7 2 0 2 6 2 3 5 6 3 5 5 4 4 3 2 2 1 2 2 2 3 4 5 6 6 6 5 8 5 7 7 8 8 8 8 9 9 9 12 10 10 11 11 11 10 10 9 8 11 8 7 7 6 8 9 9 12 11 11 10 10 10 10 11 11 11 10 10 10 10 10 9 7 8 7 6 5 5 7 7 5 5 3 4 4
2 4 7 6 6 6 3 3 2 2 1 6 5 5 4 10 2 5 2 3 8 8 8 6 4 4 3 2 2 2 1 3 3 4 4 5 4 4 4 4 8 7 7 7 6 7 8 8 10 12 12 10 9 11 11 12 11 10 11 11 11 9 7 7 8 10 10 9 11 11 9 10 9 10 10 10 11 11 10 11 10 10 9 9 8 8 8 9 8 6 5 4 5 6 5 4 4
4 3 4 4 7 4 3 5 2 2 5 5 9 9 6 9 4 9 12 9 4 7 3 3 3 3 3 2 2 2 1 2 3 3 4 3 3 4 4 8 6 6 6 6 7 7 7 9 9 13 9 8 10 11 12 12 11 10 10 10 10 10 9 10 11 11 9 10 10 9 9 8 8 8 8 9 10 10 9 9 9 9 8 8 9 9 8 7 7 6 6 5 5 5 6 6 5
3 1 2 3 3 6 2 4 4 1 7 2 8 8 7 9 4 5 3 2 5 15 14 12 9 8 6 4 3 2 1 2 2 3 3 3 4 5 6 8 6 5 6 8 8 7 8 8 9 11 9 9 9 9 11 10 10 10 9 9 10 8 8 9 10 9 8 8 7 7 5 6 7 7 8 9 10 11 9 9 8 8 9 9 9 7 7 7 6 6 6 6 6 5 5 6 5
4 4 3 2 4 6 3 2 2 7 8 0 1 3 3 13 4 0 1 3 1 7 13 16 14 10 7 5 4 3 2 2 2 2 3 3 3 4 5 5 5 6 7 6 6 6 6 7 7 10 9 7 9 8 11 9 10 9 8 8 7 7 8 8 7 8 6 7 6 7 7 7 6 7 7 7 7 8 7 9 9 9 9 8 8 8 8 8 8 7 7 7 6 6 6 6 7
6 5 5 4 1 1 3 6 2 6 6 3 0 1 5 2 4 2 3 3 4 4 4 9 13 12 10 7 4 3 3 2 2 2 2 2 3 3 4 4 4 4 5 5 4 5 4 6 5 9 7 6 6 8 8 9 8 7 6 6 6 6 6 6 6 6 5 5 5 6 6 6 7 7 7 8 7 7 7 6 6 7 7 7 8 8 8 8 8 7 7 7 7 6 5 5 5
8 3 8 8 8 5 4 4 5 7 6 2 4 3 6 2 3 2 4 5 2 2 7 7 6 5 5 5 4 4 3 2 2 3 3 3 3 4 4 3 4 4 4 4 4 4 4 5 5 7 7 5 6 6 6 8 7 6 5 5 5 4 5 5 5 5 5 6 5 5 5 5 6 6 6 5 6 7 7 7 7 7 8 8 7 8 8 8 7 7 6 6 7 5 6 6 6
2 3 5 5 8 7 9 3 3 1 3 2 2 5 3 4 0 2 0 2 4 4 8 9 8 5 5 5 5 5 4 3 3 3 3 3 3 3 4 4 4 4 4 4 4 3 4 4 5 5 6 4 5 6 6 6 5 4 4 4 4 4 3 3 4 4 4 4 3 3 4 3 4 3 4 4 5 5 6 6 6 7 7 7 7 7 8 7 7 8 8 7 8 5 6 8 7
2 4 5 6 2 4 3 2 1 1 2 9 2 5 4 2 0 1 1 4 3 3 6 8 8 7 6 6 5 5 5 4 4 4 3 3 2 1 2 3 4 4 4 4 3 3 4 4 5 7 6 6 7 5 5 5 4 5 5 5 4 5 5 6 6 5 5 4 4 4 4 4 3 3 4 3 4 4 5 5 6 6 6 6 6 6 6 7 7 7 7 8 8 7 6 7 7
6 2 5 2 2 3 3 5 2 1 6 8 3 7 4 1 9 2 1 3 3 4 6 7 6 6 7 7 6 6 6 5 4 4 3 3 3 3 2 3 3 4 4 4 3 2 3 4 6 8 8 9 6 7 6 5 5 5 4 4 4 3 3 4 5 5 4 5 5 5 4 6 7 6 6 6 5 6 5 5 5 6 6 5 6 6 5 5 5 6 6 7 7 6 7 7 6
4 3 1 3 3 2 1 4 5 5 6 6 4 2 3 8 7 2 4 7 10 8 6 7 9 9 9 7 7 5 4 4 4 4 4 4 4 4 4 4 3 3 3 3 3 3 5 6 6 6 5 4 3 2 1 1 1 1 1 3 3 5 5 5 5 4 4 4 4 4 4 4 5 6 7 8 9 9 8 8 6 6 6 6 5 5 5 6 5 6 6 7 7 7 7 8 8
1 1 1 0 2 2 3 6 3 3 7 4 7 1 9 6 5 12 11 14 12 11 10 14 14 11 10 9 8 9 8 7 6 6 5 5 5 5 5 5 4 4 3 3 3 3 4 3 3 3 2 1 1 2 2 2 3 3 4 5 5 5 4 4 4 4 5 4 5 5 6 6 7 6 5 5 5 6 6 7 6 6 7 6 6 5 5 5 5 5 6 7 7 7 8 8 9
1 1 2 1 0 2 3 1 4 4 4 4 4 8 5 5 4 8 11 13 14 17 18 14 12 11 10 10 10 9 8 8 8 7 6 6 5 4 3 3 3 1 1 1 2 3 1 1 0 0 1 1 1 2 2 3 4 4 4 5 5 5 5 4 5 5 5 5 5 5 6 5 5 6 6 6 6 7 7 7 8 8 8 8 8 8 6 5 5 5 5 5 6 6 7 8 7
8 10 9 10 5 4 5 10 2 1 2 5 3 13 6 4 1 2 3 4 11 16 15 14 13 13 13 10 7 8 9 8 7 7 5 5 5 6 4 3 2 2 2 2 0 1 0 1 1 0 1 2 4 5 5 5 4 3 3 3 3 3 3 4 4 4 4 4 4 4 5 4 5 6 5 6 6 6 6 7 7 8 8 9 9 9 8 7 8 9 8 5 6 7 7 8 7
Wind_Direction
315 307 296 301 55 109 49 360 171 320 62 342 352 357 263 22 239 22 268 337 6 252 206 213 135 89 192 211 197 208 208 123 211 116 272 235 237 239 220 232 278 146 155 161 170 175 181 187 184 178 179 181 182 179 175 175 171 163 163 162 168 170 171 171 170 168 166 164 163 161 161 159 158 153 148 147 143 130 116 111 111 116 119 114 110 101 89 86 82 77 73 69 65 62 60 57 54
298 303 317 317 202 68 244 121 95 355 36 58 221 87 249 280 47 205 220 200 208 242 335 170 34 60 38 68 144 162 290 221 168 184 266 243 294 267 199 194 181 157 158 161 169 175 179 186 186 181 178 181 183 182 177 176 172 167 167 169 171 170 173 174 176 172 170 169 169 169 170 170 165 160 160 155 148 139 131 122 115 116 119 114 111 107 97 85 79 76 71 67 62 57 54 50 46
309 344 359 28 35 68 87 33 286 44 84 52 277 207 327 304 224 255 221 215 234 273 311 275 183 130 47 15 358 131 271 286 281 278 236 328 62 257 168 174 184 162 158 163 166 175 179 185 186 182 178 181 182 184 177 177 177 172 172 173 174 175 177 173 176 175 177 174 175 180 176 175 173 167 164 160 152 142 133 125 117 118 116 112 109 111 101 84 79 70 67 66 60 54 51 46 39
296 29 341 55 252 32 51 27 84 122 111 202 314 284 188 190 248 216 240 247 268 339 344 323 358 218 128 358 235 67 286 332 194 164 300 234 199 210 157 162 167 149 150 163 171 174 178 185 185 182 181 181 183 184 179 179 178 174 175 178 176 178 179 177 178 178 182 180 182 187 182 182 169 164 162 149 146 137 132 127 120 122 115 117 120 112 87 81 70 67 59 61 61 53 44 40 37
38 345 80 100 105 1 103 93 134 103 121 207 129 280 267 218 237 254 270 278 284 179 351 236 357 308 181 176 164 156 260 250 306 195 255 263 263 192 147 150 146 150 163 171 169 174 180 182 186 183 182 184 186 183 179 181 177 176 175 181 181 181 179 180 181 181 185 184 191 190 189 173 170 163 149 145 146 137 131 131 121 93 97 124 133 84 65 60 60 46 48 50 50 44 38 31 29
50 50 10 86 34 157 50 58 40 260 215 150 176 247 237 229 208 223 269 309 284 171 205 49 208 313 342 236 182 190 206 27 214 269 184 274 210 166 146 145 144 157 166 168 172 173 179 184 186 184 185 186 188 183 178 178 177 178 177 182 184 184 183 183 184 186 187 191 194 194 181 172 174 163 152 138 138 137 136 129 91 84 60 43 42 125 106 87 88 82 69 51 49 39 27 24 22
315 41 357 22 29 50 160 130 222 198 286 164 220 258 240 251 223 353 315 350 248 352 156 284 27 6 34 312 328 245 191 81 127 268 175 315 195 141 144 145 146 162 166 172 172 175 180 184 187 187 186 189 189 184 179 176 180 181 178 184 186 186 186 185 188 191 193 195 196 188 173 172 178 171 143 135 137 140 142 122 109 90 72 42 32 16 125 148 122 125 90 59 56 41 22 17 19
83 127 318 100 286 45 54 164 241 161 359 169 233 262 272 245 185 299 273 87 313 18 327 241 359 118 261 62 294 276 324 203 255 299 279 270 163 137 149 144 151 169 170 170 175 178 181 185 188 189 188 190 190 185 180 179 183 184 181 185 188 188 189 188 190 194 198 199 198 190 175 177 180 172 146 142 148 153 148 143 140 123 111 109 24 341 323 143 258 158 96 84 76 54 31 17 11
1 87 253 67 38 32 49 20 282 246 285 296 287 226 261 227 172 149 279 249 309 253 307 315 275 39 254 347 220 268 291 312 305 310 350 163 153 146 146 160 157 164 173 174 177 177 183 190 190 190 190 191 191 186 184 184 187 184 184 187 190 191 192 192 192 194 199 203 200 193 182 181 185 175 156 154 153 170 177 164 147 142 143 142 271 329 284 351 334 332 238 98 80 56 34 13 6
35 67 323 103 133 345 6 299 73 173 244 237 281 287 276 38 285 206 221 350 213 329 266 263 195 224 319 300 313 333 311 336 306 38 24 17 120 117 135 179 166 159 168 179 179 180 187 193 193 193 193 193 192 188 188 186 187 188 187 189 192 193 193 195 194 196 199 203 205 196 192 181 187 186 172 167 163 172 176 176 160 159 151 158 217 250 311 353 318 274 113 99 82 63 30 8 6
3 9 135 69 27 59 319 270 267 313 286 329 297 241 241 210 198 240 14 259 3 205 315 131 49 243 72 270 230 257 311 340 3 243 315 352 3 128 145 207 181 173 170 180 181 178 186 193 199 198 197 196 195 190 189 189 188 189 189 191 194 195 194 196 195 200 202 202 206 198 193 184 191 186 173 177 169 169 174 166 163 160 178 198 253 258 243 291 289 355 95 91 80 61 42 11 1
334 22 8 102 129 153 238 187 286 279 292 322 263 304 226 163 131 341 329 358 309 311 216 122 285 143 240 334 297 289 308 309 228 248 285 4 330 30 153 201 166 195 191 180 177 183 184 190 198 205 202 200 200 193 192 192 192 191 190 192 195 197 197 198 197 201 204 208 206 196 195 183 192 184 179 177 175 173 171 169 170 178 193 227 241 229 226 223 222 90 98 90 83 66 47 13 352
96 84 72 81 209 138 205 319 256 293 327 305 203 332 359 108 262 247 235 226 317 351 324 210 108 86 288 204 260 320 354 297 244 247 281 249 219 233 93 185 220 198 184 191 181 190 189 190 195 201 204 204 203 199 195 195 196 194 192 195 196 197 198 198 199 201 205 205 197 196 196 192 195 176 177 179 173 172 171 169 175 183 202 213 203 210 206 210 196 114 108 100 87 74 58 354 4
112 180 127 339 64 119 169 253 313 29 311 271 280 286 333 309 257 233 136 328 285 196 244 174 122 142 260 4 314 346 273 281 288 298 277 322 65 20 207 204 185 205 193 181 197 192 191 195 197 200 201 204 204 203 201 199 198 196 194 196 199 200 201 200 201 203 205 201 193 191 189 192 203 178 176 172 167 168 174 167 173 193 198 191 196 203 210 203 190 118 121 112 98 89 77 318 17
110 146 82 119 86 77 247 158 172 139 265 12 318 7 357 261 327 98 184 265 278 214 338 182 172 97 252 189 285 249 278 298 337 338 67 42 36 29 3 60 79 214 198 195 203 192 196 195 199 200 203 202 202 200 200 201 200 200 196 198 200 201 203 204 205 204 205 202 191 184 182 191 197 175 170 168 169 170 168 163 174 183 190 191 195 203 205 195 190 135 127 127 124 131 173 139 53
142 86 71 69 268 86 270 195 104 100 260 212 281 243 336 290 138 9 276 179 260 321 103 218 6 222 245 166 248 249 256 303 324 46 70 49 360 357 7 358 353 41 219 205 205 211 198 193 196 201 203 204 203 200 203 200 202 200 198 198 201 201 203 206 208 208 204 201 190 182 186 185 180 173 168 168 170 171 166 165 180 179 187 191 195 199 188 189 173 147 142 141 156 157 171 130 73
64 80 39 30 282 152 260 169 154 247 254 276 295 29 15 291 285 245 171 131 295 278 345 243 205 11 196 215 238 281 304 319 353 69 86 51 9 319 335 325 339 319 234 224 210 207 206 199 197 198 203 205 204 202 205 205 201 200 202 198 198 202 202 203 208 207 202 203 189 184 180 176 177 173 171 168 170 170 171 171 180 185 184 184 183 191 193 183 185 161 154 161 159 181 103 79 19
53 72 112 253 200 146 206 190 188 187 271 283 336 36 323 302 329 287 352 318 349 298 301 276 287 263 217 243 162 264 290 150 116 135 147 205 34 262 273 271 302 237 249 236 227 208 203 209 201 199 199 205 204 202 202 204 201 196 202 201 199 199 200 200 202 197 191 195 197 177 175 169 165 166 171 163 164 166 174 178 184 189 187 180 177 181 195 193 188 177 164 168 177 125 106 78 30
96 127 99 225 186 241 160 202 211 146 269 257 285 321 194 244 155 296 348 286 339 321 289 161 277 283 307 304 305 18 124 221 187 192 192 210 216 221 228 234 245 264 259 242 234 202 204 202 199 200 200 200 204 204 202 200 195 183 204 201 196 192 195 192 188 188 173 176 175 172 164 152 151 145 157 162 161 172 178 188 191 194 189 180 175 176 188 185 192 182 175 179 145 110 88 95 71
217 118 226 250 209 238 220 197 231 193 251 291 311 308 141 251 215 290 232 274 322 280 289 321 311 301 303 281 327 344 1 272 255 207 219 234 232 227 233 236 247 253 274 289 250 209 202 202 201 200 195 194 198 202 202 195 189 179 192 197 190 188 186 186 186 181 175 168 167 152 145 145 149 148 157 165 156 161 189 198 200 198 188 175 179 171 184 179 188 178 183 156 103 95 107 103 99
277 94 191 231 210 148 265 195 241 246 185 236 250 299 312 286 224 118 253 335 274 248 243 234 273 291 303 339 322 316 308 290 287 303 284 276 285 317 325 318 286 280 258 273 280 260 224 207 197 202 192 192 194 197 197 197 179 174 187 201 196 188 179 177 183 179 174 168 164 156 150 138 137 137 134 135 140 132 133 174 216 210 147 171 170 161 167 201 154 147 100 87 123 129 133 185 149
110 211 208 176 116 238 256 233 230 199 197 188 278 332 282 318 286 298 296 271 277 266 273 207 240 277 326 328 322 314 317 317 322 333 316 317 307 301 302 296 286 270 276 269 240 260 273 260 231 200 192 195 195 195 196 188 173 182 185 186 197 204 181 177 173 178 176 171 166 161 146 143 135 129 138 147 137 141 147 170 191 179 149 193 49 156 128 128 124 121 120 129 137 124 158 174 184
227 308 264 210 209 244 277 320 141 53 326 297 311 273 349 38 288 257 258 239 253 255 249 311 323 356 313 341 1 12 10 7 15 10 357 356 344 332 322 308 304 298 271 255 247 230 223 229 229 219 205 197 200 195 192 185 188 178 176 175 181 198 194 172 183 172 175 172 164 162 160 157 149 144 146 146 154 150 169 177 191 180 194 193 168 153 166 120 131 136 137 159 139 151 161 272 281
168 250 319 298 177 228 272 285 298 293 262 260 209 348 308 312 302 229 255 253 245 269 355 4 3 38 29 46 34 46 42 40 35 31 34 22 4 354 344 339 327 315 300 284 271 248 212 211 202 208 213 200 198 189 190 194 188 175 170 162 179 170 197 180 160 176 166 168 161 169 175 162 160 159 162 162 165 159 180 176 157 171 198 215 159 146 157 125 116 111 141 130 152 214 239 278 301
191 267 263 269 346 243 269 272 292 272 264 262 290 284 261 202 249 352 275 278 271 311 43 37 46 58 50 52 38 33 37 27 24 12 18 17 5 350 8 355 348 346 350 327 306 292 251 207 193 210 209 205 192 181 197 193 182 178 164 165 176 155 190 233 156 141 164 180 160 160 165 150 150 161 164 172 150 175 153 162 165 192 187 210 176 177 156 166 154 150 171 179 185 227 283 290 311
207 227 186 303 302 305 290 309 273 263 277 193 300 264 263 239 224 253 257 270 307 59 44 51 69 61 52 46 40 38 35 30 17 20 11 353 6 16 9 0 347 360 338 317 326 305 288 218 198 205 205 197 183 181 196 186 182 185 185 177 159 134 174 166 151 151 147 160 192 153 177 170 173 177 175 172 177 184 183 179 178 188 198 192 182 197 185 163 172 155 152 158 224 269 295 284 322
171 222 211 265 271 327 298 232 277 283 255 189 244 280 286 349 96 280 280 265 48 61 64 51 73 65 50 44 38 34 39 29 17 344 21 17 16 17 358 358 5 345 338 2 358 341 315 308 262 221 187 167 170 196 187 190 169 191 186 181 172 181 144 104 122 146 152 163 190 192 164 182 184 179 179 181 199 198 189 180 197 179 192 196 192 200 166 171 160 175 176 181 192 217 243 300 322
79 238 307 276 286 252 248 268 268 332 299 191 195 249 306 295 111 235 255 52 51 68 64 61 61 60 46 38 39 29 38 23 15 28 26 16 9 358 0 4 349 348 6 4 3 352 11 11 26 49 144 150 163 191 180 180 175 175 163 168 189 196 193 197 174 157 167 184 170 184 187 179 181 186 174 166 182 181 181 191 189 184 208 196 193 183 172 164 166 156 143 141 129 97 308 327 338
272 36 320 298 339 328 277 262 283 152 264 152 159 327 307 117 219 239 265 22 46 74 72 64 60 54 46 38 39 35 27 17 22 31 19 6 356 357 10 2 357 355 360 2 1 26 22 11 17 19 84 88 91 104 120 100 106 133 159 177 168 161 178 190 200 204 202 197 192 197 199 189 185 181 176 175 185 186 177 178 187 211 217 191 179 173 157 145 133 146 155 135 134 126 299 283 309
345 38 83 323 345 316 282 286 24 136 250 142 169 290 272 260 241 264 33 8 60 60 65 61 61 53 46 43 43 38 25 24 26 20 6 3 1 5 17 6 10 10 2 4 20 28 16 18 19 25 17 56 91 100 98 99 115 112 129 145 137 144 163 164 186 197 191 189 190 195 176 174 185 168 169 174 166 177 179 187 195 212 207 174 162 155 168 167 167 171 191 153 189 191 219 238 263
262 259 87 260 346 270 283 45 299 334 265 175 102 208 281 278 277 266 5 67 90 81 69 72 63 55 49 43 43 42 33 27 24 15 8 6 4 9 18 16 18 16 18 22 25 17 28 26 23 35 25 32 28 38 79 99 101 105 112 125 139 157 157 176 180 165 175 191 165 195 197 195 188 182 177 167 175 172 181 194 202 212 174 163 168 179 166 170 171 194 163 187 193 237 241 246 218
0 9 295 333 179 279 303 279 194 219 333 14 119 302 238 267 282 303 52 63 82 92 93 73 65 60 52 43 43 43 34 21 23 22 13 4 7 10 16 18 19 24 26 18 22 21 31 25 24 37 30 31 33 38 43 56 61 58 51 43 48 41 42 35 28 18 13 28 27 188 206 189 183 185 184 177 180 188 190 199 213 176 168 163 173 164 158 181 188 182 191 174 192 239 231 259 227
350 190 274 273 196 264 338 313 199 215 88 345 163 224 333 301 271 314 86 38 79 110 102 79 70 62 55 50 50 40 36 26 23 18 10 2 3 10 16 19 25 27 27 28 26 26 29 21 24 29 26 23 29 38 49 54 56 60 58 56 55 49 40 34 28 32 43 46 35 31 13 357 354 357 340 210 201 194 196 208 194 166 160 171 171 171 187 180 174 184 198 206 199 217 211 243 251
279 48 221 214 226 250 245 301 356 41 136 221 305 254 241 257 300 302 1 9 87 102 106 86 77 71 61 63 57 51 46 37 25 7 1 360 356 8 19 25 27 32 36 35 35 38 34 25 26 27 22 22 26 31 41 52 58 61 58 58 55 53 45 36 33 37 34 31 49 52 58 65 62 54 42 25 352 7 352 337 95 148 151 154 165 172 187 154 180 181 211 215 205 204 216 224 240
224 225 235 278 244 216 251 286 264 26 24 322 299 246 266 274 280 321 342 19 88 102 105 99 86 73 67 65 62 54 50 46 22 5 357 354 0 5 16 23 29 33 36 35 37 36 37 31 30 29 25 17 20 26 33 49 51 55 58 53 51 47 44 41 38 41 28 26 26 25 35 43 48 58 64 68 62 39 37 47 65 68 91 120 138 151 160 171 189 203 210 219 213 224 216 218 228
226 222 227 181 238 240 196 234 276 343 297 302 268 251 260 268 282 344 338 22 90 109 97 88 81 72 67 65 57 52 52 46 18 7 1 360 4 9 14 20 34 36 36 35 37 36 34 33 32 34 25 14 22 34 32 38 49 47 47 41 43 33 37 43 38 37 29 30 18 21 23 27 37 48 49 48 55 40 28 30 51 59 88 119 148 176 208 200 212 203 231 209 214 243 243 181 171
206 145 200 240 235 278 276 267 258 163 320 250 255 273 258 266 16 322 334 10 77 90 93 89 77 76 69 65 60 53 47 42 356 7 5 3 8 14 20 26 36 45 40 36 40 35 34 32 37 33 16 21 29 27 31 34 38 42 51 55 61 37 38 41 42 30 35 30 27 26 21 15 16 31 27 30 36 42 43 39 44 44 39 36 312 296 333 284 292 223 205 186 203 226 257 177 138
216 238 242 268 211 261 252 284 282 299 171 294 300 258 272 269 360 356 346 40 40 65 92 88 90 81 74 68 60 49 44 32 13 19 15 15 20 22 27 36 33 43 31 36 38 34 32 32 38 32 24 28 28 22 23 45 30 51 89 81 88 52 43 41 35 29 28 35 33 28 24 20 24 23 15 26 34 33 23 20 27 23 37 23 357 354 5 6 262 238 109 276 244 217 249 166 191
227 217 237 296 260 265 288 267 305 252 160 257 279 265 268 358 15 19 42 52 48 39 76 101 103 93 80 66 63 54 46 29 16 21 23 26 22 25 33 35 40 43 43 40 34 38 33 32 30 30 29 31 25 19 24 30 32 40 65 54 70 92 67 77 75 53 43 42 39 33 29 26 24 27 21 20 24 20 23 23 18 11 19 18 345 329 343 304 271 227 204 233 259 330 290 214 196
220 222 208 239 242 334 305 288 346 351 168 266 164 245 276 92 79 66 30 54 72 58 64 62 57 82 79 68 52 61 43 22 28 18 24 22 29 32 35 36 35 42 41 38 34 36 36 34 30 27 30 34 31 23 18 8 32 53 58 68 60 68 60 33 47 39 32 33 31 30 33 27 30 34 27 26 28 29 24 20 7 11 3 18 356 324 322 305 321 300 270 274 312 291 255 254 206
246 198 218 246 247 229 197 252 334 308 333 61 261 295 300 253 214 45 55 55 75 59 70 65 56 63 75 73 62 41 42 0 19 29 28 28 33 31 32 34 37 44 40 37 34 36 39 36 34 33 31 33 35 27 24 16 27 31 29 51 51 45 34 32 32 25 23 26 29 25 17 24 28 32 29 29 28 25 26 24 22 15 14 358 4 345 330 310 293 254 236 242 225 245 275 270 264
301 225 209 226 225 244 248 301 340 4 330 339 89 318 297 326 318 152 134 63 66 28 82 74 71 58 55 67 60 45 30 357 14 33 34 32 37 33 33 33 39 42 40 32 36 41 43 41 38 38 39 35 34 33 30 37 42 42 38 38 37 40 42 29 28 17 13 21 15 357 24 25 26 28 27 25 24 22 23 21 20 19 18 11 10 345 327 334 326 314 283 259 268 252 263 308 300
208 269 203 219 226 225 236 233 99 286 240 291 35 197 268 315 222 196 152 104 91 43 81 96 80 72 69 56 53 38 13 17 20 38 37 41 28 39 35 35 35 44 35 30 42 46 47 47 45 45 45 41 35 38 37 46 52 49 51 53 52 52 59 42 35 33 36 23 33 33 25 27 26 27 23 24 19 18 19 19 18 20 21 16 4 8 356 340 327 318 322 276 268 290 264 265 269
227 250 162 181 188 200 216 172 183 233 265 301 30 135 253 287 269 164 139 122 129 133 146 130 112 113 85 71 44 30 15 10 35 45 43 39 38 39 43 33 36 36 31 41 46 45 48 47 49 50 52 50 43 43 49 47 61 58 62 60 56 54 52 48 33 36 39 36 42 32 33 31 29 30 27 23 21 18 15 16 13 16 20 16 9 11 356 340 340 333 337 315 307 293 271 251 271
218 200 128 140 180 188 125 129 172 251 20 280 319 315 336 262 266 46 138 132 202 205 184 184 165 147 122 89 77 52 44 27 41 55 46 39 36 33 36 45 33 41 37 44 45 46 52 51 53 55 54 52 46 50 57 51 59 61 64 64 63 51 55 49 46 44 42 32 43 30 32 26 28 29 31 29 26 23 21 15 13 15 16 10 10 9 6 3 0 347 341 340 329 310 282 276 291
272 134 84 77 75 69 109 104 94 326 76 257 202 186 232 274 173 129 289 284 219 198 191 184 181 171 158 134 101 81 52 52 45 50 46 44 36 37 33 56 48 39 38 46 47 50 54 57 55 56 51 49 48 53 57 56 54 57 60 56 65 57 50 49 51 44 40 34 42 32 26 25 19 21 20 24 24 20 20 17 19 17 11 7 10 9 8 9 6 360 350 337 328 319 311 294 264
127 85 67 12 35 21 22 60 79 38 268 225 194 208 167 280 201 188 173 216 179 139 164 177 176 185 187 182 159 151 93 58 56 50 42 44 32 44 34 57 49 42 39 49 51 51 54 57 58 59 49 51 50 53 57 57 55 55 60 56 56 55 47 51 50 42 36 37 39 28 24 16 15 17 14 17 23 16 15 19 17 12 12 13 12 11 8 2 359 356 348 348 339 327 314 314 306
122 88 123 38 328 12 35 341 38 103 269 194 213 199 174 211 290 266 240 348 179 160 175 176 180 185 183 176 174 157 115 71 58 58 47 37 44 39 47 54 47 45 49 49 49 49 54 55 60 67 50 50 51 54 60 58 58 57 59 58 58 51 50 53 54 51 40 46 42 37 19 22 17 15 15 14 14 9 10 10 12 13 14 9 9 358 2 0 355 360 1 0 345 330 321 316 305
81 81 66 121 266 26 306 21 270 209 236 211 54 122 8 246 222 201 317 333 275 197 173 174 174 174 174 173 168 158 118 91 72 74 66 56 63 56 59 58 55 52 58 53 50 54 58 62 61 72 56 47 51 52 60 59 60 56 56 57 57 55 56 56 56 56 43 48 37 35 28 26 13 19 15 16 10 9 9 10 7 6 3 4 358 2 358 360 360 358 358 351 349 346 335 324 313
125 158 143 103 255 269 277 269 247 313 293 272 240 142 257 267 297 33 282 289 279 235 178 166 166 165 166 164 159 143 131 124 126 110 111 101 97 84 77 80 74 71 67 65 63 68 70 72 70 75 68 52 57 59 60 63 59 59 58 63 60 59 58 60 55 59 47 53 43 41 34 25 19 15 3 8 353 358 8 8 5 3 1 357 358 356 356 355 357 355 348 347 340 332 330 322 302
205 121 149 187 145 154 233 204 226 240 235 290 276 112 233 137 221 302 246 276 316 123 121 127 120 134 140 143 136 137 136 144 153 140 147 137 109 102 102 101 91 85 85 82 83 82 88 83 80 83 77 57 66 68 67 67 63 55 55 57 59 57 61 58 55 57 51 42 30 33 24 17 25 359 2 341 353 2 359 0 1 1 357 355 354 353 350 349 350 346 346 337 330 334 327 323 312
175 160 79 90 224 141 237 201 177 260 326 328 193 203 194 181 126 275 276 52 47 95 115 125 128 128 131 137 158 167 169 169 173 168 150 125 111 106 103 95 102 104 102 99 89 95 93 96 96 91 90 82 71 67 61 68 66 72 65 63 59 66 67 71 55 43 41 51 28 35 2 2 355 344 338 348 347 359 354 353 353 352 349 349 349 348 345 346 343 345 336 339 331 334 333 323 313
206 103 201 213 118 140 285 15 89 79 26 253 147 302 296 306 109 1 355 86 68 92 127 138 150 155 158 171 175 180 182 182 185 177 164 138 119 115 125 128 123 118 112 109 119 126 117 114 96 85 78 67 58 59 62 56 54 52 41 47 39 38 38 38 35 27 19 8 12 356 355 326 312 325 328 338 340 343 343 344 343 340 342 340 338 338 339 336 339 338 334 330 327 325 324 311 306
94 180 234 98 139 107 134 228 334 70 220 267 90 211 272 135 276 52 17 131 172 163 165 165 162 162 175 188 183 186 188 191 195 187 181 175 170 162 169 173 157 152 145 133 130 148 120 89 75 69 56 55 41 45 44 42 44 41 30 30 31 46 36 27 29 18 8 10 358 355 343 349 348 343 347 342 345 339 335 334 331 326 327 329 326 325 326 324 327 326 322 319 312 316 313 306 302
158 191 232 131 237 259 315 89 253 261 252 262 283 223 257 197 237 107 245 194 199 189 183 170 186 190 191 190 194 193 190 184 183 188 188 192 186 180 172 165 178 160 153 134 109 79 61 53 53 67 75 75 71 70 68 93 93 80 71 24 22 10 14 10 9 3 356 357 338 334 340 322 332 342 347 345 346 342 339 337 335 326 324 319 313 312 314 317 321 320 319 316 315 321 319 315 310
55 69 55 208 109 179 130 196 193 169 272 261 285 304 249 200 221 185 201 200 186 173 185 201 193 186 188 189 187 188 185 186 188 190 196 192 189 187 176 169 162 151 122 97 75 64 69 57 69 64 72 87 62 46 36 21 2 20 5 6 6 10 8 358 344 357 342 343 339 347 345 352 344 336 337 333 330 324 324 324 323 322 319 318 316 310 307 305 310 309 307 314 310 314 312 308 309
178 192 273 319 162 233 100 330 153 202 202 219 260 284 275 263 203 182 207 192 182 178 191 192 187 191 195 193 188 186 184 187 191 191 191 189 182 179 189 188 165 141 91 76 90 97 77 49 126 115 108 11 355 323 10 346 4 1 6 351 351 359 350 357 355 3 2 350 346 346 343 332 334 334 334 333 333 329 327 326 325 326 327 325 325 322 322 315 310 303 299 292 296 300 301 303 300
182 180 209 194 164 240 251 256 79 131 188 239 207 260 270 264 135 228 229 213 184 198 185 179 182 191 195 196 190 181 185 195 190 191 184 175 173 176 187 186 181 151 161 146 103 166 312 253 236 4 24 6 0 350 6 353 2 1 355 348 347 348 8 12 17 11 10 352 344 336 325 333 331 317 330 322 322 319 317 316 320 320 323 323 323 322 323 325 322 319 313 305 305 303 298 296 300